Station AMRL1 - 8764227 - LAWMA, Amerada Pass, LA Image indicating link to RSS feed of recent meteorological observations for station AMRL1


Conditions at AMRL1 as of
(12:18 am CDT)
0518 GMT on 08/31/2026:
     

Click on the graph icon in the table below to see a time series plot of the last five days of that observation.

5-day plot - Wind Direction Wind Direction (WDIR): NE ( 50 deg true )
5-day plot - Wind Speed Wind Speed (WSPD): 1.9 kts
5-day plot - Wind Gust Wind Gust (GST): 4.1 kts
5-day plot - Atmospheric Pressure Atmospheric Pressure (PRES):29.98 in
5-day plot - Water Temperature Water Temperature (WTMP): 88.2 °F
5-day plot - Wind Speed at 10 Meters Wind Speed at 10 meters (WSPD10M): 1.9 kts
5-day plot - Wind Speed at 20 Meters Wind Speed at 20 meters (WSPD20M): 1.9 kts
5-day plot -  Wind Speed, Wind Gust and Atmospheric Pressure Combined plot of Wind Speed, Gust, and Air Pressure
NOS Water Level Observation Network Water Level
Previous observations
TIME
(CDT)
5-day plot - Wind Direction
WDIR
 
5-day plot - Wind Speed
WSPD
kts
5-day plot - Wind Gust
GST
kts
5-day plot - Wave Height
WVHT
ft
5-day plot - Dominant Wave Period
DPD
sec
5-day plot - Average Wave Period
APD
sec
5-day plot - Mean Wave Direction
MWD
 
5-day plot - Atmospheric Pressure
PRES
in
5-day plot - Pressure Tendency
PTDY
in
5-day plot - Air Temperature
ATMP
°F
5-day plot - Water Temperature
WTMP
°F
5-day plot - Dew Point
DEWP
°F
5-day plot - Salinity
SAL
psu
5-day plot - Visibility
VIS
nmi
5-day plot - Tide (above MLLW)
TIDE
ft
2026-08-31 12:12 am NE 1.9 4.1----29.98-- 88.2----
2026-08-31 12:06 am NE 1.9 4.1----29.98-- 88.2----
2026-08-31 12:00 am NE 1.9 4.1----29.98+0.01 79.0 88.2----
2026-08-30 11:54 pm NE 2.9 5.1----29.98- 79.0 88.2----
2026-08-30 11:48 pm NE 2.9 4.1----29.98- 79.2 88.3----
2026-08-30 11:42 pm NE 1.9 4.1----29.98- 79.2 88.3----
2026-08-30 11:36 pm NE 2.9 4.1----29.99- 79.3 88.3----
2026-08-30 11:30 pm NE 1.9 5.1----29.99- 79.3 88.3----
2026-08-30 11:24 pm NE 2.9 5.1----29.99- 79.3 88.3----
2026-08-30 11:18 pm NE 1.9 5.1----29.99- 79.5 88.3----
2026-08-30 11:12 pm NE 2.9 5.1----29.99- 79.5 88.3----
2026-08-30 11:06 pm NE 2.9 4.1----29.99- 79.5 88.5----
2026-08-30 11:00 pmNNE 2.9 4.1----29.99+0.04 79.7 88.5----
2026-08-30 10:54 pmENE 2.9 6.0----30.00- 79.7 88.5----
2026-08-30 10:48 pmENE 4.1 5.1----30.00- 79.7 88.5----
2026-08-30 10:42 pmENE 4.1 5.1----30.00- 79.7 88.5----
2026-08-30 10:36 pmENE 2.9 4.1----30.00- 79.7 88.5----
2026-08-30 10:30 pmENE 2.9 4.1----29.99- 79.9 88.7----
2026-08-30 10:24 pmENE 2.9 4.1----29.99- 79.9 88.7----
2026-08-30 10:18 pmENE 2.9 5.1----29.99- 80.1 88.7----
2026-08-30 10:12 pm NE 2.9 4.1----29.99- 80.1 88.7----
2026-08-30 10:06 pm NE 2.9 4.1----29.99- 79.9 88.7----
2026-08-30 10:00 pm NE 2.9 5.1----29.99+0.04 80.1 88.9----
2026-08-30 09:54 pmENE 2.9 5.1----29.98- 80.1 88.9----
2026-08-30 09:48 pm NE 2.9 5.1----29.98- 80.1 88.9----
2026-08-30 09:42 pmENE 2.9 4.1----29.98- 80.2 88.9----
2026-08-30 09:36 pmENE 2.9 5.1----29.98- 80.2 88.9----
2026-08-30 09:30 pmENE 2.9 5.1----29.98- 80.4 88.9----
2026-08-30 09:24 pm NE 4.1 6.0----29.98- 80.4 88.9----
2026-08-30 09:18 pmENE 4.1 7.0----29.98-- 88.9----
2026-08-30 09:12 pmENE 5.1 8.0----29.98-- 88.9----
2026-08-30 09:06 pmENE 5.1 6.0----29.97-- 89.1----
2026-08-30 09:00 pmENE 4.1 6.0----29.97+0.02 80.8 89.1----
2026-08-30 08:54 pmENE 6.0 8.9----29.97- 81.0 89.1----
2026-08-30 08:48 pmENE 6.0 9.9----29.97- 81.0 89.1----
2026-08-30 08:42 pmENE 6.0 8.9----29.96- 81.0 89.1----
2026-08-30 08:36 pmENE 4.1 7.0----29.96- 81.1 89.1----
2026-08-30 08:30 pmENE 5.1 7.0----29.96- 81.1 89.1----
2026-08-30 08:24 pmENE 5.1 6.0----29.96- 81.3 89.1----
2026-08-30 08:18 pmENE 2.9 4.1----29.96- 81.3 89.1----
2026-08-30 08:12 pmENE 4.1 5.1----29.96- 81.5 89.1----
2026-08-30 08:06 pmENE 4.1 5.1----29.96- 81.7 89.1----
2026-08-30 08:00 pmENE 4.1 6.0----29.96+0.00 81.9 89.1----
2026-08-30 07:54 pmENE 4.1 6.0----29.96- 81.9 89.1----
2026-08-30 07:48 pmENE 5.1 6.0----29.96-- 89.1----
2026-08-30 07:42 pmENE 5.1 6.0----29.95-- 89.1----
2026-08-30 07:36 pmENE 5.1 7.0----29.95-- 89.1----
2026-08-30 07:30 pmENE 4.1 6.0----29.95- 82.9 89.1----
2026-08-30 07:24 pmENE 5.1 7.0----29.95- 83.3 89.2----
2026-08-30 07:18 pm E 6.0 8.9----29.95-- 89.2----
2026-08-30 07:12 pmENE 6.0 8.9----29.95-- 89.2----
2026-08-30 07:06 pm E 5.1 8.9----29.95-- 89.2----
2026-08-30 07:00 pm E 7.0 8.9----29.95-0.01- 89.2----
2026-08-30 06:54 pm E 6.0 8.0----29.94-- 89.2----
2026-08-30 06:48 pm E 6.0 8.9----29.94-- 89.2----
2026-08-30 06:42 pmENE 5.1 8.9----29.94-- 89.2----
2026-08-30 06:36 pmENE 6.0 7.0----29.94-- 89.2----
2026-08-30 06:30 pmENE 4.1 8.0----29.94- 84.7 89.2----
2026-08-30 06:24 pm NE 2.9 5.1----29.95- 85.1 89.2----
2026-08-30 06:18 pmENE 4.1 5.1----29.95-- 89.2----
2026-08-30 06:12 pm NE 2.9 5.1----29.95-- 89.2----
2026-08-30 06:06 pmENE 4.1 6.0----29.95-- 89.2----
2026-08-30 06:00 pmENE 5.1 7.0----29.95-0.03 85.3 89.2----
2026-08-30 05:54 pm E 4.1 7.0----29.95- 85.5 89.2----
2026-08-30 05:48 pmENE 2.9 7.0----29.95- 85.5 89.2----
2026-08-30 05:42 pmENE 4.1 6.0----29.95- 85.5 89.2----
2026-08-30 05:36 pmENE 2.9 6.0----29.95- 85.5 89.2----
2026-08-30 05:30 pmENE 2.9 5.1----29.95- 85.5 89.2----
2026-08-30 05:24 pm E 4.1 8.0----29.95- 85.6 89.2----
2026-08-30 05:18 pm E 6.0 7.0----29.95-- 89.2----
2026-08-30 05:12 pm E 6.0 8.0----29.96-- 89.2----
2026-08-30 05:06 pm E 5.1 8.0----29.96-- 89.2----
2026-08-30 05:00 pm E 6.0 8.9----29.96-0.06 85.3 89.2----
2026-08-30 04:54 pm E 5.1 7.0----29.96- 85.1 89.2----
2026-08-30 04:48 pm E 4.1 8.9----29.96- 85.1 89.2----
2026-08-30 04:42 pm E 6.0 8.0----29.96- 84.9 89.2----
2026-08-30 04:36 pm E 7.0 8.9----29.95- 84.7 89.2----
2026-08-30 04:30 pmENE 5.1 8.0----29.95- 84.9 89.2----
2026-08-30 04:24 pm E 5.1 7.0----29.95- 84.9 89.2----
2026-08-30 04:18 pmENE 6.0 8.9----29.96-- 89.2----
2026-08-30 04:12 pm E 6.0 11.1----29.96-- 89.2----
2026-08-30 04:06 pm E 7.0 11.1----29.96-- 89.2----
2026-08-30 04:00 pmENE 5.1 7.0----29.96-0.05 85.1 89.2----
2026-08-30 03:54 pm NE 4.1 6.0----29.96- 85.3 89.2----
2026-08-30 03:48 pm E 8.0 9.9----29.96- 84.9 89.2----
2026-08-30 03:42 pm NE 2.9 6.0----29.96- 84.9 89.2----
2026-08-30 03:36 pmENE 5.1 7.0----29.97- 84.6 89.2----
2026-08-30 03:30 pm NE 4.1 6.0----29.97- 84.4 89.2----
2026-08-30 03:24 pmNNE 4.1 8.0----29.97- 84.0 89.2----
2026-08-30 03:18 pmENE 4.1 8.0----29.97-- 89.2----
2026-08-30 03:12 pm NE 4.1 8.0----29.97-- 89.1----
2026-08-30 03:06 pm NE 6.0 8.9----29.98-- 89.1----
2026-08-30 03:00 pmENE 6.0 9.9----29.98-0.05 83.7 89.1----
2026-08-30 02:54 pm NE 5.1 7.0----29.98- 83.8 89.2----
2026-08-30 02:48 pm NE 4.1 7.0----29.98- 83.8 89.2----
2026-08-30 02:42 pmENE 6.0 11.1----29.99- 83.7 89.2----
2026-08-30 02:36 pmENE 8.0 11.1----29.99- 83.5 89.2----
2026-08-30 02:30 pm NE 6.0 9.9----30.00- 82.9 89.2----
2026-08-30 02:24 pmENE 5.1 8.0----30.00- 82.4 89.2----
2026-08-30 02:18 pmENE 6.0 8.9----30.00-- 89.2----
2026-08-30 02:12 pmENE 7.0 11.1----30.01-- 89.2----
2026-08-30 02:06 pmENE 9.9 15.9----30.01-- 89.2----
2026-08-30 02:00 pmENE 11.1 17.1----30.01-0.02 84.6 89.1----
2026-08-30 01:54 pm E 8.9 14.0----30.01- 84.9 89.1----
2026-08-30 01:48 pm E 11.1 15.0----30.01- 84.6 89.1----
2026-08-30 01:42 pm E 14.0 17.1----30.01- 85.3 89.1----
2026-08-30 01:36 pmENE 8.0 13.0----30.01- 87.4 89.1----
2026-08-30 01:30 pmNNE 8.9 13.0----30.00- 88.0 89.1----
2026-08-30 01:24 pm NE 6.0 9.9----30.00- 88.5 89.1----
2026-08-30 01:18 pm NE 5.1 11.1----30.01-- 89.1----
2026-08-30 01:12 pmNNE 5.1 11.1----30.01-- 88.9----
2026-08-30 01:06 pm NE 7.0 12.0----30.01-- 88.9----
2026-08-30 01:00 pm NE 6.0 12.0----30.01-0.02 87.4 88.9----
2026-08-30 12:54 pm NE 7.0 12.0----30.01- 88.0 88.9----
2026-08-30 12:48 pm NE 8.0 13.0----30.01- 87.8 88.9----
2026-08-30 12:42 pmNNE 5.1 9.9----30.01- 87.8 88.7----
2026-08-30 12:36 pmNNE 6.0 11.1----30.01- 87.6 88.7----
2026-08-30 12:30 pm N 4.1 8.0----30.02- 87.6 88.7----
2026-08-30 12:24 pm N 4.1 8.9----30.02- 87.8 88.7----
2026-08-30 12:18 pm N 4.1 9.9----30.03- 87.4 88.7----
2026-08-30 12:12 pmNNE 5.1 12.0----30.03- 87.3 88.7----
2026-08-30 12:06 pm N 4.1 8.0----30.03- 86.7 88.7----
2026-08-30 12:00 pmNNE 4.1 8.9----30.03+0.00 86.5 88.7----
2026-08-30 11:54 amNNE 4.1 8.0----30.03- 86.5 88.5----
2026-08-30 11:48 amNNE 5.1 9.9----30.03- 86.4 88.5----
2026-08-30 11:42 am N 5.1 8.9----30.03- 86.5 88.5----
2026-08-30 11:36 am N 5.1 8.9----30.03- 86.2 88.5----
2026-08-30 11:30 am N 5.1 8.9----30.03- 86.0 88.5----
2026-08-30 11:24 amNNE 5.1 8.0----30.03- 86.0 88.5----
2026-08-30 11:18 am N 4.1 8.9----30.03- 85.8 88.5----
2026-08-30 11:12 am NE 6.0 9.9----30.03- 85.6 88.5----
2026-08-30 11:06 amNNE 1.9 8.0----30.04- 86.0 88.3----
2026-08-30 11:00 am NE 2.9 8.0----30.03+0.02 85.8 88.3----
2026-08-30 10:54 am NE 4.1 8.0----30.04- 85.8 88.3----
2026-08-30 10:48 am NE 5.1 8.9----30.04-- 88.3----
2026-08-30 10:42 amENE 6.0 9.9----30.04-- 88.3----
2026-08-30 10:36 am NE 5.1 8.0----30.04-- 88.3----
2026-08-30 10:30 amENE 7.0 9.9----30.04- 85.1 88.2----
2026-08-30 10:24 amENE 7.0 12.0----30.04- 84.9 88.2----
2026-08-30 10:18 am NE 6.0 8.9----30.04-- 88.2----
2026-08-30 10:12 amNNE 2.9 6.0----30.04-- 88.2----
2026-08-30 10:06 amENE 5.1 8.9----30.03-- 88.3----
2026-08-30 10:00 am NE 5.1 8.9----30.03+0.03 83.7 88.3----
2026-08-30 09:54 am NE 7.0 9.9----30.03- 83.8 88.3----
2026-08-30 09:48 amENE 6.0 8.9----30.03- 83.8 88.3----
2026-08-30 09:42 am NE 6.0 9.9----30.02- 83.5 88.3----
2026-08-30 09:36 am NE 5.1 8.9----30.02- 83.3 88.3----
2026-08-30 09:30 am NE 1.9 8.9----30.02- 83.1 88.5----
2026-08-30 09:24 amENE 2.9 6.0----30.02- 83.1 88.5----
2026-08-30 09:18 am NE 1.9 6.0----30.03-- 88.5----
2026-08-30 09:12 am NE 2.9 7.0----30.03-- 88.5----
2026-08-30 09:06 am NE 2.9 7.0----30.03-- 88.5----
2026-08-30 09:00 am NE 5.1 8.9----30.03+0.04 82.0 88.5----
2026-08-30 08:54 am NE 4.1 8.0----30.03- 82.0 88.5----
2026-08-30 08:48 am NE 4.1 8.0----30.02- 81.7 88.5----
2026-08-30 08:42 am NE 5.1 7.0----30.02- 81.7 88.3----
2026-08-30 08:36 am NE 4.1 6.0----30.02- 81.7 88.3----
2026-08-30 08:30 amNNE 2.9 5.1----30.02- 81.3 88.5----
2026-08-30 08:24 amNNE 1.9 5.1----30.02- 81.3 88.5----
2026-08-30 08:18 amNNE 1.0 2.9----30.02-- 88.7----
2026-08-30 08:12 am- 0.0 1.9----30.02-- 88.7----
2026-08-30 08:06 amNNE 1.9 2.9----30.02-- 88.7----
2026-08-30 08:00 amNNE 1.9 2.9----30.01+0.04 80.6 88.7----
2026-08-30 07:54 am- 0.0 2.9----30.01- 80.6 88.7----
2026-08-30 07:48 am N 1.9 4.1----30.01- 80.6 88.7----
2026-08-30 07:42 am- 0.0 2.9----30.01- 80.4 88.7----
2026-08-30 07:36 am N 1.9 2.9----30.01- 80.2 88.7----
2026-08-30 07:30 am N 1.0 1.9----30.01- 80.1 88.9----
2026-08-30 07:24 am N 1.0 1.9----30.01- 79.9 88.9----
2026-08-30 07:18 am- 0.0 2.9----30.01-- 88.9----
2026-08-30 07:12 am- 0.0 1.9----30.01-- 88.9----
2026-08-30 07:06 am- 0.0 1.0----30.00-- 88.9----
2026-08-30 07:00 am-------30.00+0.02 79.3 88.9----
2026-08-30 06:54 am-------30.00- 79.5 88.9----
2026-08-30 06:48 am NE 1.9 2.9----30.00-- 88.9----
2026-08-30 06:42 am N 1.0 2.9----30.00-- 88.9----
2026-08-30 06:36 am N 1.0 2.9----29.99-- 88.9----
2026-08-30 06:30 am N 1.0 2.9----29.99-- 88.9----
2026-08-30 06:24 am N 1.0 2.9----29.99-- 88.9----
2026-08-30 06:18 amNNE 1.9 2.9----29.99-- 88.9----
2026-08-30 06:12 am N 1.0 2.9----29.98-- 88.9----
2026-08-30 06:06 amNNE 1.0 1.9----29.98-- 88.9----
2026-08-30 06:00 amNNE 1.9 4.1----29.98+0.00 79.5 88.9----
2026-08-30 05:54 am NE 1.9 4.1----29.99- 79.5 88.9----
2026-08-30 05:48 am NE 1.9 1.9----29.98- 79.5 88.9----
2026-08-30 05:42 am- 0.0 1.9----29.98- 79.5 88.9----
2026-08-30 05:36 amNNE 1.0 2.9----29.98- 79.5 88.9----
2026-08-30 05:30 am NE 1.0 1.9----29.98- 79.5 88.9----
2026-08-30 05:24 amNNE 1.0 2.9----29.98- 79.3 88.9----
2026-08-30 05:18 am N 1.0 2.9----29.98-- 88.9----
2026-08-30 05:12 amNNE 1.9 2.9----29.98-- 88.9----
2026-08-30 05:06 amNNE 1.0 1.9----29.98-- 88.9----
2026-08-30 05:00 am NE 1.9 2.9----29.98-0.01 79.5 88.9----
2026-08-30 04:54 am NE 1.9 2.9----29.98- 79.5 88.9----
2026-08-30 04:48 am NE 2.9 4.1----29.98- 79.5 88.9----
2026-08-30 04:42 am NE 2.9 4.1----29.98- 79.5 88.9----
2026-08-30 04:36 amENE 2.9 2.9----29.98- 79.3 88.9----
2026-08-30 04:30 amENE 1.9 2.9----29.98- 79.5 88.9----
2026-08-30 04:24 amENE 1.9 4.1----29.98- 79.5 88.9----
2026-08-30 04:18 amENE 2.9 4.1----29.98-- 88.9----
2026-08-30 04:12 amENE 2.9 4.1----29.98-- 88.9----
2026-08-30 04:06 amENE 2.9 2.9----29.98-- 88.9----
2026-08-30 04:00 amENE 1.9 1.9----29.98-0.03 79.9 88.9----
2026-08-30 03:54 am- 0.0 0.0----29.98- 79.9 88.9----
2026-08-30 03:48 am- 0.0 1.0----29.98- 79.9 88.9----
2026-08-30 03:42 am- 0.0 1.0----29.98- 80.1 88.9----
2026-08-30 03:36 am- 0.0 0.0----29.98- 80.2 88.9----
2026-08-30 03:30 am- 0.0 1.0----29.98- 80.4 88.9----
2026-08-30 03:24 am- 0.0 1.0----29.98- 80.4 89.1----
2026-08-30 03:18 am- 0.0 1.9----29.98-- 89.1----
2026-08-30 03:12 amENE 1.0 1.9----29.98-- 88.9----
2026-08-30 03:06 am- 0.0 1.0----29.98-- 88.9----
2026-08-30 03:00 am- 0.0 1.0----29.98-0.04 80.2 88.9----
2026-08-30 02:54 am- 0.0 1.0----29.98- 80.4 89.1----
2026-08-30 02:48 am- 0.0 1.9----29.98- 80.2 89.1----
2026-08-30 02:42 am E 1.9 2.9----29.98- 80.2 89.1----
2026-08-30 02:36 am E 1.9 2.9----29.98- 80.1 89.1----
2026-08-30 02:30 am E 1.9 2.9----29.98- 80.1 89.1----
2026-08-30 02:24 am E 1.9 2.9----29.98- 79.9 89.1----
2026-08-30 02:18 am E 1.9 2.9----29.99-- 89.1----
2026-08-30 02:12 am E 1.0 1.9----29.99-- 89.1----
2026-08-30 02:06 amENE 1.9 2.9----29.99-- 89.1----
2026-08-30 02:00 am E 1.0 1.9----29.99-0.02 80.2 89.1----
2026-08-30 01:54 amENE 1.9 2.9----29.99- 80.2 89.1----
2026-08-30 01:48 am- 0.0 1.0----29.99- 80.4 89.1----
2026-08-30 01:42 amENE 1.0 1.9----30.00- 80.4 89.1----
2026-08-30 01:36 am- 0.0 1.0----30.00- 80.6 89.1----
2026-08-30 01:30 am- 0.0 2.9----30.00- 80.6 89.1----
2026-08-30 01:24 amENE 1.9 2.9----30.01- 80.6 89.1----
2026-08-30 01:18 am E 2.9 4.1----30.01-- 89.2----
2026-08-30 01:12 am E 1.9 2.9----30.01-- 89.2----
2026-08-30 01:06 amENE 4.1 5.1----30.01-- 89.2----
2026-08-30 01:00 amENE 2.9 4.1----30.01+0.00 81.3 89.2----
2026-08-30 12:54 am E 1.9 2.9----30.01- 81.5 89.2----
2026-08-30 12:48 amENE 1.9 4.1----30.01-- 89.2----
2026-08-30 12:42 am E 2.9 4.1----30.01-- 89.2----
2026-08-30 12:36 am E 1.0 1.9----30.01-- 89.2----
2026-08-30 12:30 am- 0.0 1.9----30.01- 80.8 89.2----
2026-08-30 12:24 am E 2.9 4.1----30.02- 80.6 89.2----
2026-08-30 12:18 am E 1.9 4.1----30.01-- 89.2----
2026-08-30 12:12 amENE 2.9 4.1----30.01-- 89.2----
2026-08-30 12:06 amENE 1.9 4.1----30.01-- 89.4----
2026-08-30 12:00 am NE 1.0 1.9----30.01+0.03 81.0 89.4----
2026-08-29 11:54 pm- 0.0 2.9----30.01- 81.1 89.2----